| time (UTC) | temp C | wind direction | speed KPH | gust KPH | rain 1hr cm | rain 24hr cm | rain mn cm | humidity % | barometer mb |
| 20260508015617 | 17 | 351 | 1.6 | 4.8 | 0.00 | 0.00 | 0.00 | 54 | 1017.1 |
| 20260508014617 | 17 | 358 | 3.2 | 4.8 | 0.00 | 0.00 | 0.00 | 55 | 1017.1 |
| 20260508013553 | 17 | 346 | 4.8 | 9.7 | 0.00 | 0.00 | 0.00 | 53 | 1017.1 |
| 20260508012552 | 17 | 360 | 3.2 | 6.4 | 0.00 | 0.00 | 0.00 | 54 | 1017.3 |
| 20260508011550 | 17 | 31 | 3.2 | 6.4 | 0.00 | 0.00 | 0.00 | 53 | 1017.4 |
| 20260508010548 | 17 | 5 | 3.2 | 4.8 | 0.00 | 0.00 | 0.00 | 53 | 1017.4 |
| 20260508005547 | 17 | 353 | 3.2 | 6.4 | 0.00 | 0.00 | 0.00 | 53 | 1017.5 |
| 20260508004545 | 18 | 28 | 4.8 | 6.4 | 0.00 | 0.00 | 0.00 | 52 | 1017.6 |
| 20260508003543 | 18 | 18 | 4.8 | 11.3 | 0.00 | 0.00 | 0.00 | 52 | 1017.6 |
| 20260508002542 | 17 | 17 | 3.2 | 9.7 | 0.00 | 0.00 | 0.00 | 52 | 1017.7 |
| 20260508001540 | 17 | 359 | 3.2 | 9.7 | 0.00 | 0.00 | 0.00 | 52 | 1017.8 |
| 20260508000538 | 17 | 332 | 3.2 | 11.3 | 0.00 | 0.00 | 0.00 | 53 | 1017.9 |
| 20260507235536 | 17 | 2 | 4.8 | 11.3 | 0.00 | 0.00 | 0.00 | 52 | 1018.0 |
| 20260507234534 | 17 | 342 | 4.8 | 11.3 | 0.00 | 0.00 | 0.00 | 53 | 1018.0 |
| 20260507233533 | 17 | 234 | 1.6 | 3.2 | 0.00 | 0.00 | 0.00 | 55 | 1018.0 |
| 20260507232531 | 17 | 1 | 3.2 | 11.3 | 0.00 | 0.00 | 0.00 | 54 | 1018.0 |
| 20260507231529 | 17 | 13 | 4.8 | 12.9 | 0.00 | 0.00 | 0.00 | 55 | 1018.1 |
| 20260507230528 | 17 | 10 | 4.8 | 11.3 | 0.00 | 0.00 | 0.00 | 54 | 1018.2 |
| 20260507225547 | 17 | 357 | 4.8 | 9.7 | 0.00 | 0.00 | 0.00 | 54 | 1018.4 |
| 20260507224545 | 17 | 328 | 3.2 | 9.7 | 0.00 | 0.00 | 0.00 | 56 | 1018.5 |
| 20260507223522 | 17 | 345 | 4.8 | 9.7 | 0.00 | 0.00 | 0.00 | 55 | 1018.5 |
| 20260507222521 | 17 | 350 | 4.8 | 11.3 | 0.00 | 0.00 | 0.00 | 55 | 1018.5 |
| 20260507221519 | 17 | 4 | 8.0 | 14.5 | 0.00 | 0.00 | 0.00 | 56 | 1018.7 |
| 20260507220518 | 17 | 328 | 3.2 | 6.4 | 0.00 | 0.00 | 0.00 | 57 | 1018.9 |
| 20260507215515 | 17 | 351 | 1.6 | 9.7 | 0.00 | 0.00 | 0.00 | 57 | 1018.8 |
| 20260507214634 | 17 | 0 | 6.4 | 12.9 | 0.00 | 0.00 | 0.00 | 57 | 1019.0 |
| 20260507213612 | 17 | 7 | 6.4 | 12.9 | 0.00 | 0.00 | 0.00 | 57 | 1019.1 |
| 20260507212611 | 17 | 341 | 3.2 | 9.7 | 0.00 | 0.00 | 0.00 | 59 | 1019.3 |
| 20260507211629 | 16 | 303 | 3.2 | 6.4 | 0.00 | 0.00 | 0.00 | 59 | 1019.2 |
| 20260507210608 | 16 | 0 | 3.2 | 14.5 | 0.00 | 0.00 | 0.00 | 58 | 1019.5 |
| 20260507205606 | 16 | 356 | 4.8 | 11.3 | 0.00 | 0.00 | 0.00 | 60 | 1019.5 |
| 20260507204604 | 16 | 12 | 4.8 | 14.5 | 0.00 | 0.00 | 0.00 | 58 | 1019.5 |
| 20260507203602 | 16 | 32 | 4.8 | 11.3 | 0.00 | 0.00 | 0.00 | 60 | 1019.6 |
| 20260507202600 | 16 | 350 | 4.8 | 11.3 | 0.00 | 0.00 | 0.00 | 59 | 1019.7 |
| 20260507201558 | 16 | 349 | 3.2 | 11.3 | 0.00 | 0.00 | 0.00 | 60 | 1019.8 |
| 20260507200557 | 16 | 267 | 1.6 | 4.8 | 0.00 | 0.00 | 0.00 | 62 | 1020.0 |
| 20260507195616 | 16 | 347 | 3.2 | 9.7 | 0.00 | 0.00 | 0.00 | 63 | 1020.1 |
| 20260507194553 | 15 | 4 | 6.4 | 14.5 | 0.00 | 0.00 | 0.00 | 62 | 1020.1 |
| 20260507193552 | 16 | 14 | 4.8 | 11.3 | 0.00 | 0.00 | 0.00 | 61 | 1020.2 |
| 20260507192550 | 16 | 10 | 4.8 | 11.3 | 0.00 | 0.00 | 0.00 | 60 | 1020.2 |
| 20260507191609 | 16 | 217 | 1.6 | 3.2 | 0.00 | 0.00 | 0.00 | 64 | 1020.2 |
| 20260507190547 | 15 | 313 | 1.6 | 6.4 | 0.00 | 0.00 | 0.00 | 65 | 1020.4 |
| 20260507185545 | 15 | 44 | 1.6 | 4.8 | 0.00 | 0.00 | 0.00 | 65 | 1020.4 |
| 20260507184543 | 15 | 14 | 4.8 | 9.7 | 0.00 | 0.00 | 0.00 | 64 | 1020.4 |
| 20260507183542 | 15 | 353 | 3.2 | 6.4 | 0.00 | 0.00 | 0.00 | 63 | 1020.5 |
| 20260507182540 | 15 | 16 | 1.6 | 4.8 | 0.00 | 0.00 | 0.00 | 63 | 1020.6 |
| 20260507181538 | 15 | 12 | 1.6 | 3.2 | 0.00 | 0.00 | 0.00 | 62 | 1020.7 |
| 20260507180536 | 15 | 293 | 1.6 | 4.8 | 0.00 | 0.00 | 0.00 | 64 | 1020.6 |
| 20260507175534 | 15 | 320 | 1.6 | 3.2 | 0.00 | 0.00 | 0.00 | 64 | 1020.7 |
| 20260507174532 | 15 | 288 | 3.2 | 6.4 | 0.00 | 0.00 | 0.00 | 65 | 1020.8 |
| 20260507173531 | 15 | 321 | 1.6 | 3.2 | 0.00 | 0.00 | 0.00 | 64 | 1020.8 |
| 20260507172529 | 15 | 241 | 3.2 | 9.7 | 0.00 | 0.00 | 0.00 | 65 | 1020.8 |
| 20260507171551 | 16 | 256 | 3.2 | 9.7 | 0.00 | 0.00 | 0.00 | 65 | 1020.8 |
| 20260507170546 | 16 | 231 | 1.6 | 4.8 | 0.00 | 0.00 | 0.00 | 68 | 1020.7 |
| 20260507165544 | 15 | 253 | 3.2 | 4.8 | 0.00 | 0.00 | 0.00 | 67 | 1020.8 |
| 20260507164522 | 15 | 245 | 1.6 | 3.2 | 0.00 | 0.00 | 0.00 | 67 | 1020.8 |
| 20260507163521 | 15 | 167 | 1.6 | 6.4 | 0.00 | 0.00 | 0.00 | 68 | 1020.7 |
| 20260507162518 | 15 | 210 | 4.8 | 9.7 | 0.00 | 0.00 | 0.00 | 70 | 1021.0 |
| 20260507161517 | 14 | 227 | 4.8 | 9.7 | 0.00 | 0.00 | 0.00 | 70 | 1020.9 |
| 20260507160615 | 15 | 236 | 1.6 | 3.2 | 0.00 | 0.00 | 0.00 | 70 | 1020.9 |
| 20260507155654 | 15 | 230 | 3.2 | 4.8 | 0.00 | 0.00 | 0.00 | 70 | 1020.9 |
| 20260507154613 | 15 | 247 | 4.8 | 9.7 | 0.00 | 0.00 | 0.00 | 73 | 1020.8 |
| 20260507153610 | 14 | 235 | 1.6 | 4.8 | 0.00 | 0.00 | 0.00 | 75 | 1020.9 |
| 20260507152609 | 13 | 230 | 3.2 | 9.7 | 0.00 | 0.00 | 0.00 | 80 | 1021.1 |
| 20260507151607 | 11 | 171 | 1.6 | 3.2 | 0.00 | 0.00 | 0.00 | 81 | 1021.1 |
| 20260507150605 | 11 | 190 | 1.6 | 3.2 | 0.00 | 0.00 | 0.00 | 82 | 1021.3 |
| 20260507145624 | 11 | 165 | 1.6 | 3.2 | 0.00 | 0.00 | 0.00 | 82 | 1021.2 |
| 20260507144622 | 11 | 191 | 1.6 | 3.2 | 0.00 | 0.00 | 0.00 | 83 | 1021.2 |
| 20260507143620 | 10 | 169 | 1.6 | 3.2 | 0.00 | 0.00 | 0.00 | 83 | 1021.2 |
| 20260507142618 | 10 | 152 | 1.6 | 3.2 | 0.00 | 0.00 | 0.00 | 82 | 1021.2 |
| 20260507141556 | 10 | 153 | 1.6 | 3.2 | 0.00 | 0.00 | 0.00 | 82 | 1021.1 |
| 20260507140555 | 10 | 161 | 1.6 | 4.8 | 0.00 | 0.00 | 0.00 | 82 | 1021.1 |
| 20260507135553 | 10 | 179 | 0.0 | 1.6 | 0.00 | 0.00 | 0.00 | 82 | 1020.9 |
| 20260507134612 | 10 | 180 | 0.0 | 1.6 | 0.00 | 0.00 | 0.00 | 82 | 1020.9 |
| 20260507133550 | 10 | 203 | 0.0 | 1.6 | 0.00 | 0.00 | 0.00 | 82 | 1020.7 |
| 20260507132608 | 10 | 220 | 0.0 | 3.2 | 0.00 | 0.00 | 0.00 | 82 | 1020.9 |
| 20260507131546 | 10 | 195 | 0.0 | 3.2 | 0.00 | 0.00 | 0.00 | 82 | 1020.8 |
| 20260507130545 | 10 | 211 | 1.6 | 4.8 | 0.00 | 0.00 | 0.00 | 81 | 1020.5 |
| 20260507125542 | 10 | 214 | 1.6 | 4.8 | 0.00 | 0.00 | 0.00 | 81 | 1020.7 |
| 20260507124541 | 10 | 193 | 0.0 | 1.6 | 0.00 | 0.00 | 0.00 | 81 | 1020.8 |
| 20260507123540 | 10 | 158 | 0.0 | 3.2 | 0.00 | 0.00 | 0.00 | 82 | 1020.8 |
| 20260507122558 | 10 | 221 | 0.0 | 1.6 | 0.00 | 0.00 | 0.00 | 81 | 1020.8 |
| 20260507121536 | 10 | 218 | 0.0 | 3.2 | 0.00 | 0.00 | 0.00 | 82 | 1020.8 |
| 20260507120534 | 10 | 214 | 0.0 | 1.6 | 0.00 | 0.00 | 0.00 | 82 | 1020.9 |
| 20260507115532 | 10 | 211 | 0.0 | 1.6 | 0.00 | 0.00 | 0.00 | 82 | 1021.1 |
| 20260507114551 | 10 | 173 | 0.0 | 1.6 | 0.00 | 0.00 | 0.00 | 81 | 1021.2 |
| 20260507113529 | 10 | 164 | 0.0 | 1.6 | 0.00 | 0.00 | 0.00 | 81 | 1021.3 |
| 20260507112527 | 10 | 203 | 0.0 | 1.6 | 0.00 | 0.00 | 0.00 | 81 | 1021.3 |
| 20260507111525 | 10 | 0.0 | 0.0 | 0.00 | 0.00 | 0.00 | 81 | 1021.3 | |
| 20260507110524 | 10 | 167 | 0.0 | 1.6 | 0.00 | 0.00 | 0.00 | 81 | 1021.3 |
| 20260507105522 | 10 | 216 | 0.0 | 1.6 | 0.00 | 0.00 | 0.00 | 81 | 1021.3 |
| 20260507104521 | 10 | 175 | 0.0 | 3.2 | 0.00 | 0.00 | 0.00 | 81 | 1021.3 |
| 20260507103519 | 10 | 143 | 1.6 | 3.2 | 0.00 | 0.00 | 0.00 | 81 | 1021.4 |
| 20260507102537 | 10 | 150 | 1.6 | 1.6 | 0.00 | 0.00 | 0.00 | 82 | 1021.4 |
| 20260507101615 | 10 | 0.0 | 0.0 | 0.00 | 0.00 | 0.00 | 82 | 1021.3 | |
| 20260507100614 | 11 | 0.0 | 0.0 | 0.00 | 0.00 | 0.00 | 82 | 1021.4 | |
| 20260507095632 | 11 | 142 | 0.0 | 1.6 | 0.00 | 0.00 | 0.00 | 82 | 1021.3 |
| 20260507094610 | 11 | 187 | 0.0 | 1.6 | 0.00 | 0.00 | 0.00 | 82 | 1021.2 |
| 20260507093649 | 11 | 227 | 1.6 | 3.2 | 0.00 | 0.00 | 0.00 | 82 | 1021.2 |
| 20260507092607 | 11 | 237 | 0.0 | 3.2 | 0.00 | 0.00 | 0.00 | 82 | 1021.4 |
| 20260507091625 | 11 | 223 | 1.6 | 4.8 | 0.00 | 0.00 | 0.00 | 82 | 1021.3 |
| 20260507090603 | 11 | 228 | 1.6 | 4.8 | 0.00 | 0.00 | 0.00 | 83 | 1021.3 |
| 20260507085601 | 11 | 216 | 0.0 | 3.2 | 0.00 | 0.00 | 0.00 | 84 | 1021.4 |
| 20260507084600 | 11 | 224 | 1.6 | 4.8 | 0.00 | 0.00 | 0.00 | 84 | 1021.3 |
| 20260507083559 | 11 | 223 | 3.2 | 6.4 | 0.00 | 0.00 | 0.00 | 84 | 1021.4 |
| 20260507082557 | 11 | 243 | 0.0 | 1.6 | 0.00 | 0.00 | 0.00 | 84 | 1021.4 |
| 20260507081555 | 11 | 215 | 1.6 | 3.2 | 0.00 | 0.00 | 0.00 | 85 | 1021.4 |
| 20260507080553 | 11 | 221 | 1.6 | 4.8 | 0.00 | 0.00 | 0.00 | 85 | 1021.4 |
| 20260507075552 | 11 | 215 | 1.6 | 6.4 | 0.00 | 0.00 | 0.00 | 86 | 1021.4 |
| 20260507074550 | 11 | 218 | 0.0 | 3.2 | 0.00 | 0.00 | 0.00 | 86 | 1021.5 |
| 20260507073548 | 11 | 222 | 1.6 | 4.8 | 0.00 | 0.00 | 0.00 | 86 | 1021.4 |
| 20260507072546 | 11 | 176 | 1.6 | 3.2 | 0.00 | 0.00 | 0.00 | 86 | 1021.4 |
| 20260507071545 | 11 | 238 | 3.2 | 6.4 | 0.00 | 0.00 | 0.00 | 86 | 1021.5 |
| 20260507070542 | 11 | 223 | 1.6 | 4.8 | 0.00 | 0.00 | 0.00 | 86 | 1021.4 |
| 20260507065601 | 11 | 219 | 1.6 | 6.4 | 0.00 | 0.00 | 0.00 | 86 | 1021.4 |
| 20260507064539 | 11 | 247 | 3.2 | 6.4 | 0.00 | 0.00 | 0.00 | 86 | 1021.4 |
| 20260507063537 | 11 | 237 | 3.2 | 9.7 | 0.00 | 0.00 | 0.00 | 85 | 1021.3 |
| 20260507062536 | 11 | 231 | 1.6 | 4.8 | 0.00 | 0.00 | 0.00 | 85 | 1021.4 |
| 20260507061535 | 11 | 226 | 3.2 | 6.4 | 0.00 | 0.00 | 0.00 | 85 | 1021.5 |
| 20260507060532 | 11 | 246 | 1.6 | 4.8 | 0.00 | 0.00 | 0.00 | 84 | 1021.5 |
| 20260507055530 | 11 | 219 | 1.6 | 3.2 | 0.00 | 0.00 | 0.00 | 83 | 1021.5 |
| 20260507054529 | 11 | 249 | 4.8 | 9.7 | 0.00 | 0.00 | 0.00 | 83 | 1021.4 |
| 20260507053548 | 11 | 244 | 4.8 | 6.4 | 0.00 | 0.00 | 0.00 | 82 | 1021.4 |
| 20260507052526 | 12 | 246 | 4.8 | 6.4 | 0.00 | 0.00 | 0.00 | 81 | 1021.6 |
| 20260507051524 | 12 | 263 | 1.6 | 9.7 | 0.00 | 0.00 | 0.00 | 80 | 1021.4 |
| 20260507050522 | 12 | 250 | 3.2 | 6.4 | 0.00 | 0.00 | 0.00 | 79 | 1021.5 |
| 20260507045520 | 12 | 253 | 4.8 | 11.3 | 0.00 | 0.00 | 0.00 | 79 | 1021.4 |
| 20260507044519 | 12 | 255 | 3.2 | 9.7 | 0.00 | 0.00 | 0.00 | 78 | 1021.2 |
| 20260507043516 | 12 | 259 | 4.8 | 9.7 | 0.00 | 0.00 | 0.00 | 78 | 1021.2 |
| 20260507042615 | 12 | 239 | 3.2 | 6.4 | 0.00 | 0.00 | 0.00 | 77 | 1021.4 |
| 20260507041654 | 12 | 244 | 0.0 | 3.2 | 0.00 | 0.00 | 0.00 | 77 | 1021.4 |
| 20260507040611 | 12 | 254 | 1.6 | 4.8 | 0.00 | 0.00 | 0.00 | 77 | 1021.3 |
| 20260507035610 | 12 | 255 | 3.2 | 6.4 | 0.00 | 0.00 | 0.00 | 77 | 1021.1 |
| 20260507034609 | 12 | 255 | 3.2 | 9.7 | 0.00 | 0.00 | 0.00 | 77 | 1021.1 |
| 20260507033606 | 12 | 243 | 3.2 | 9.7 | 0.00 | 0.00 | 0.00 | 76 | 1020.9 |
| 20260507032605 | 13 | 248 | 3.2 | 9.7 | 0.00 | 0.00 | 0.00 | 76 | 1021.0 |
| 20260507031603 | 13 | 248 | 3.2 | 6.4 | 0.00 | 0.00 | 0.00 | 76 | 1020.8 |
| 20260507030601 | 13 | 241 | 6.4 | 14.5 | 0.00 | 0.00 | 0.00 | 75 | 1020.7 |
| 20260507025559 | 13 | 237 | 4.8 | 11.3 | 0.00 | 0.00 | 0.00 | 75 | 1020.7 |
| 20260507024558 | 13 | 272 | 3.2 | 11.3 | 0.00 | 0.00 | 0.00 | 74 | 1020.6 |
| 20260507023636 | 13 | 279 | 3.2 | 9.7 | 0.00 | 0.00 | 0.00 | 74 | 1020.6 |
| 20260507022554 | 13 | 245 | 4.8 | 9.7 | 0.00 | 0.00 | 0.00 | 73 | 1020.5 |
| 20260507021553 | 14 | 248 | 4.8 | 12.9 | 0.00 | 0.00 | 0.00 | 72 | 1020.6 |
| 20260507020551 | 14 | 256 | 6.4 | 12.9 | 0.00 | 0.00 | 0.00 | 72 | 1020.6 |